SSU 1 DEB

Satellite information

Favourite Embed

Satellite Type and Status

DEBRISIN ORBIT

Key statistics

Satellite SSU 1 DEB at a glance.

Uptime

18409

Days in orbit

Revolutions

≈ 12.6

Per day

Orbit

SSO

Sun Synchronous Orbit

Inclination

95.2

Latest

Satellite identification and parameters

Extended collection of information and parameters for SSU 1 DEB.

Object identification

Identified? True

Debris? True

Object name: SSU 1 DEB

International designator: 1975-051E

Object number (NORAD): 7939

Object ID (CCSDS): 7939

Country: UNITED STATES OF AMERICA (US)

Current information (Y/N): Y

RCS size: SMALL

Orbital parameters

Period: 113.868 minutes

Inclination: 95.1831 deg

SMA: 7782.074 km

Apoapsis: 1423.992 km

Periapsis: 1383.886 km

RAAN: 192.835 deg

Eccentricy: 0.0025768

Argument of periapsis: 346.2733 deg

Mean anomaly: 135.2138 deg

Mean motion: 12.64619032 rev/day

Mean motion (dot): 0.00000004 rev/day2

B* drag term: 0.000082102627 1/REarth

Two-line elements (TLE)

Creation date: Oct. 25, 2025, 3:11 a.m.

Reference frame: TEME

Reference center: EARTH

Epoch: Oct. 24, 2025, 7:22 a.m. UTC

TLE line 0: 0 SSU 1 DEB

TLE line 1: 1 07939U 75051E 25297.30720787 .00000004 00000-0 82103-4 0 9997

TLE line 2: 2 07939 95.1831 192.8350 0025768 346.2733 135.2138 12.64619032324478

Live tracking on map

Real-time ground track for satellite SSU 1 DEB.

In-orbit conjunctions

A list of the most updated potential collisions computed for object SSU 1 DEB.

Target Orbit TCA Probability of collision Miss distance Type
COSMOS 2094 LEO 2025-02-01 08:24:57 0.0001034429 329.0 (m) PAYLOAD

Associated space launch

Large reconnaissance satellite equipped with four return capsules.

SSU 1 DEB was lifted into orbit during the mission ‘Titan IIID | KH-9 10’, on board a Titan IIID space rocket.

The launch took place on June 8, 1975, 6:30 p.m. from Space Launch Complex 4E.

For more information about the launch, click the button.

Launch to space Titan IIID | KH-9 10
Titan IIID | KH-9 10

Agency: N/A

Status: Launch Successful

Launch date: June 8, 1975, 6:30 p.m. UTC

Rocket: Titan IIID

Launch pad: Space Launch Complex 4E

Location: Vandenberg SFB, CA, USA

...

Latest news about this satellite

There are no fresh news available about this satellite. Check back as we update our databases every day.


Newsletter sign-up

Weekly statistics, charts and insights to help you stay on top of the space industry.